TIANMU-1 09

Last updated on Wed Sep 17 2025 00:02:23 GMT+0000 (Coordinated Universal Time)

1 57401U 23101C 25259.59914769 .00007202 00000+0 28075-3 0 9992 2 57401 97.2967 310.7889 0006231 45.9612 314.2139 15.26228252119856
UTC large
Height (km)
Speed (km/s)
/
Latitude / Longitude
Inclination (degrees)
Orbital Period (minutes)
Azimuth
Elevation
Range (km)
Doppler Factor

Next 0 passes for location: London (51.5072 / 0.1276)

Sorry there are no passes over London.